Weather History for Dumas, TX

Change the Weather History Date:

Tuesday, December 13, 2011

  Actual Average (KBGD) Record (KBGD)
Temperature  
Mean Temperature 42 °F 38 °F  
Max Temperature 44 °F 50 °F 77 °F (2005)
Min Temperature 41 °F 27 °F 8 °F (1958)
Degree Days  
Heating Degree Days 22 27  
Month to date heating degree days 324  
Since 1 July heating degree days 1041  
Cooling Degree Days 0 0  
Month to date cooling degree days 0  
Year to date cooling degree days 1839  
Moisture  
Dew Point 42 °F    
Average Humidity 98    
Maximum Humidity 100    
Minimum Humidity 93    
Precipitation  
Precipitation 0.02 in 0.02 in 0.61 in (1987)
Month to date precipitation 0.23  
Year to date precipitation 21.18  
Snow  
Snow 0.00 in - - ()
Month to date snowfall  
Since 1 July snowfall  
Snow Depth -    
Sea Level Pressure  
Sea Level Pressure 30.07 in    
Wind  
Wind Speed 9 mph (South)    
Max Wind Speed 16 mph    
Max Gust Speed 17 mph    
Visibility 3 miles    
Events Fog , Rain    
T = Trace of Precipitation, MM = Missing Value Source: NWS Daily Summary

Daily Weather History Graph

Daily Weather History Graph

Search for Another Location

Airport:

Trip Planner

Search our weather history database for the weather conditions in past years. The results will help you decide how hot, cold, wet, or windy it might be!

Date:

Astronomy

Dec. 13, 2011 Rise Set
Actual Time 7:49 AM CST 5:34 PM CST
Civil Twilight 7:20 AM CST 6:03 PM CST
Nautical Twilight 6:48 AM CST 6:35 PM CST
Astronomical Twilight 6:17 AM CST 7:06 PM CST
Moon 8:48 PM CST (12/13) 10:04 AM CST (12/13)
Length of Visible Light 10h 42m
Length of Day
9h 45m
Waning Gibbous, 90% of the Moon is Illuminated
Dec 13
Waning Gibbous
Dec 17
Last Quarter
Dec 24
New
Jan 1
First Quarter
Jan 9
Full

Hourly Weather History & Observations

Time (CST) Temp. Windchill Dew Point Humidity Pressure Visibility Wind Dir Wind Speed Gust Speed Precip Events Conditions
12:15 AM 41.0 °F 37.1 °F 41.0 °F 100% 30.12 in 1.5 mi South 5.8 mph - N/A   Overcast
12:35 AM 42.8 °F 38.0 °F 41.0 °F 93% 30.14 in 1.0 mi SSW 8.1 mph - N/A   Overcast
12:55 AM 41.0 °F 37.1 °F 41.0 °F 100% 30.14 in 0.8 mi SW 5.8 mph - N/A   Overcast
1:15 AM 41.0 °F - 41.0 °F 100% 30.11 in 1.0 mi Calm Calm - N/A Rain Light Rain
1:35 AM 41.0 °F 38.0 °F 41.0 °F 100% 30.14 in 0.8 mi SSW 4.6 mph - N/A Rain Light Rain
1:55 AM 41.0 °F 35.8 °F 41.0 °F 100% 30.16 in 1.0 mi SSW 8.1 mph - N/A Rain Light Rain
2:15 AM 41.0 °F 36.4 °F 41.0 °F 100% 30.12 in 1.2 mi SSE 6.9 mph - 0.01 in Rain Rain
2:35 AM 42.8 °F 37.0 °F 41.0 °F 93% 30.07 in 1.2 mi SE 10.4 mph - 0.01 in   Overcast
2:55 AM 42.8 °F 38.0 °F 41.0 °F 93% 30.09 in 0.5 mi SSE 8.1 mph - 0.01 in Fog Fog
3:15 AM 42.8 °F 36.2 °F 41.0 °F 93% 30.11 in 1.8 mi South 12.7 mph - N/A   Overcast
3:35 AM 41.0 °F 32.8 °F 41.0 °F 100% 30.10 in 2.5 mi South 16.1 mph - N/A   Overcast
3:55 AM 41.0 °F 33.9 °F 41.0 °F 100% 30.10 in 1.5 mi South 12.7 mph - N/A   Overcast
4:15 AM 41.0 °F 33.9 °F 41.0 °F 100% 30.07 in 2.5 mi SSE 12.7 mph - N/A   Overcast
4:35 AM 41.0 °F 33.9 °F 41.0 °F 100% 30.08 in 7.0 mi South 12.7 mph - N/A   Drizzle
4:55 AM 41.0 °F 34.3 °F 41.0 °F 100% 30.08 in 7.0 mi South 11.5 mph 17.3 mph N/A   Overcast
5:15 AM 41.0 °F 33.9 °F 41.0 °F 100% 30.09 in 7.0 mi South 12.7 mph - N/A   Overcast
5:35 AM 41.0 °F 33.5 °F 41.0 °F 100% 30.08 in 5.0 mi South 13.8 mph - 0.01 in   Overcast
5:55 AM 41.0 °F 33.5 °F 41.0 °F 100% 30.08 in 5.0 mi South 13.8 mph - 0.01 in   Overcast
6:15 AM 41.0 °F 33.9 °F 41.0 °F 100% 30.07 in 4.0 mi South 12.7 mph - N/A   Overcast
6:35 AM 41.0 °F 35.2 °F 41.0 °F 100% 30.08 in 1.8 mi SSE 9.2 mph - N/A   Overcast
6:55 AM 41.0 °F 34.3 °F 41.0 °F 100% 30.08 in 0.5 mi SSE 11.5 mph - N/A Fog Fog
7:15 AM 41.0 °F 34.3 °F 41.0 °F 100% 30.08 in 0.5 mi SSE 11.5 mph - N/A Fog Fog
7:35 AM 41.0 °F 34.7 °F 41.0 °F 100% 30.08 in 0.5 mi SSE 10.4 mph - N/A Fog Fog
7:55 AM 41.0 °F 34.7 °F 41.0 °F 100% 30.08 in 0.8 mi SSE 10.4 mph - N/A   Overcast
8:15 AM 41.0 °F 34.3 °F 41.0 °F 100% 30.09 in 0.8 mi SSE 11.5 mph - N/A   Overcast
8:35 AM 41.0 °F 34.3 °F 41.0 °F 100% 30.10 in 0.5 mi SSE 11.5 mph - N/A Fog Fog
8:55 AM 41.0 °F 34.7 °F 41.0 °F 100% 30.11 in 0.8 mi South 10.4 mph - N/A   Overcast
9:15 AM 41.0 °F 36.4 °F 41.0 °F 100% 30.11 in 0.8 mi South 6.9 mph - N/A   Overcast
9:35 AM 41.0 °F 35.2 °F 41.0 °F 100% 30.11 in 1.5 mi South 9.2 mph - N/A   Overcast
9:55 AM 41.0 °F 35.8 °F 41.0 °F 100% 30.11 in 1.2 mi SSE 8.1 mph - N/A   Overcast
10:35 AM 42.8 °F 37.0 °F 41.0 °F 93% 30.11 in 2.0 mi South 10.4 mph - N/A   Overcast
10:55 AM 42.8 °F 36.6 °F 42.8 °F 100% 30.11 in 5.0 mi South 11.5 mph - N/A   Overcast
11:15 AM 42.8 °F 35.8 °F 42.8 °F 100% 30.11 in 4.0 mi South 13.8 mph - N/A   Overcast
11:35 AM 42.8 °F 36.6 °F 42.8 °F 100% 30.10 in 3.0 mi South 11.5 mph - N/A   Overcast
11:55 AM 42.8 °F 36.6 °F 42.8 °F 100% 30.08 in 5.0 mi South 11.5 mph - N/A   Overcast
12:15 PM 42.8 °F 36.2 °F 42.8 °F 100% 30.07 in 7.0 mi SSE 12.7 mph - N/A   Overcast
12:35 PM 42.8 °F 37.0 °F 42.8 °F 100% 30.06 in 4.0 mi South 10.4 mph - N/A   Overcast
12:55 PM 42.8 °F 36.2 °F 42.8 °F 100% 30.05 in 5.0 mi South 12.7 mph - N/A   Overcast
1:15 PM 42.8 °F 37.0 °F 42.8 °F 100% 30.04 in 7.0 mi South 10.4 mph - N/A   Overcast
1:35 PM 42.8 °F 36.6 °F 42.8 °F 100% 30.03 in 3.0 mi South 11.5 mph - N/A   Overcast
1:55 PM 42.8 °F 37.5 °F 42.8 °F 100% 30.02 in 2.5 mi South 9.2 mph - N/A   Overcast
2:15 PM 42.8 °F 37.5 °F 42.8 °F 100% 30.02 in 2.0 mi South 9.2 mph - N/A   Overcast
2:35 PM 42.8 °F 38.6 °F 42.8 °F 100% 30.02 in 2.5 mi South 6.9 mph - N/A   Overcast
2:55 PM 42.8 °F 37.5 °F 42.8 °F 100% 30.02 in 2.5 mi South 9.2 mph - N/A   Overcast
3:15 PM 42.8 °F 37.5 °F 42.8 °F 100% 30.02 in 3.0 mi South 9.2 mph - N/A   Overcast
3:35 PM 42.8 °F 39.3 °F 42.8 °F 100% 30.01 in 3.0 mi South 5.8 mph - N/A   Overcast
3:55 PM 44.6 °F 40.2 °F 42.8 °F 93% 30.00 in 7.0 mi South 8.1 mph - N/A   Overcast
4:15 PM 44.6 °F 39.7 °F 42.8 °F 93% 29.99 in 10.0 mi SSE 9.2 mph - N/A   Overcast
4:35 PM 44.6 °F 39.2 °F 42.8 °F 93% 29.98 in 10.0 mi SE 10.4 mph - N/A   Overcast
4:55 PM 44.6 °F 39.7 °F 42.8 °F 93% 29.98 in 10.0 mi SE 9.2 mph - N/A   Overcast
5:35 PM 42.8 °F 36.6 °F 41.0 °F 93% 29.98 in 0.8 mi SE 11.5 mph - N/A   Overcast
5:55 PM 42.8 °F 37.5 °F 41.0 °F 93% 29.97 in 7.0 mi SE 9.2 mph - N/A   Overcast
6:15 PM 42.8 °F 37.5 °F 41.0 °F 93% 29.97 in 1.5 mi SE 9.2 mph - N/A   Overcast
6:35 PM 42.8 °F 38.6 °F 41.0 °F 93% 29.98 in 0.8 mi SE 6.9 mph - N/A   Overcast
6:55 PM 42.8 °F 39.3 °F 41.0 °F 93% 30.00 in 0.5 mi SSE 5.8 mph - N/A Fog Fog
7:15 PM 42.8 °F 39.3 °F 41.0 °F 93% 30.00 in 0.8 mi SE 5.8 mph - N/A   Overcast
7:35 PM 42.8 °F 39.3 °F 41.0 °F 93% 30.00 in 2.5 mi SE 5.8 mph - N/A   Overcast
7:55 PM 41.0 °F 35.8 °F 41.0 °F 100% 29.98 in 2.0 mi ESE 8.1 mph - N/A   Overcast
8:15 PM 41.0 °F 35.8 °F 41.0 °F 100% 29.98 in 2.0 mi SE 8.1 mph - N/A   Overcast
8:35 PM 41.0 °F 35.8 °F 41.0 °F 100% 29.97 in 0.5 mi SE 8.1 mph - N/A Fog Fog
8:55 PM 41.0 °F 36.4 °F 41.0 °F 100% 29.97 in 1.0 mi ESE 6.9 mph - N/A   Overcast
9:15 PM 41.0 °F 35.2 °F 41.0 °F 100% 29.97 in 0.5 mi SE 9.2 mph - N/A Fog Fog
9:35 PM 41.0 °F 35.8 °F 41.0 °F 100% 29.98 in 0.8 mi SE 8.1 mph - N/A   Overcast
9:55 PM 41.0 °F 38.0 °F 41.0 °F 100% 29.99 in 1.0 mi SSE 4.6 mph - 0.02 in   Overcast
10:15 PM 41.0 °F 38.0 °F 41.0 °F 100% 29.98 in 1.0 mi SE 4.6 mph - 0.01 in Rain Light Rain
10:35 PM 41.0 °F 37.1 °F 41.0 °F 100% 29.98 in 1.5 mi SSE 5.8 mph - 0.01 in Rain Light Rain
10:55 PM 41.0 °F 39.0 °F 41.0 °F 100% 29.94 in 1.5 mi East 3.5 mph - 0.02 in   Overcast
11:15 PM 41.0 °F 36.4 °F 41.0 °F 100% 29.95 in 1.8 mi SSE 6.9 mph - N/A   Overcast
11:35 PM 41.0 °F 37.1 °F 41.0 °F 100% 29.96 in 1.2 mi SSE 5.8 mph - N/A   Overcast
11:55 PM 42.8 °F 36.6 °F 41.0 °F 93% 29.98 in 1.8 mi SSE 11.5 mph - 0.04 in   Overcast